| time (UTC) | temp F | wind direction | speed MPH | gust MPH | rain 1hr in | rain 24hr in | rain mn in | humidity % | barometer mb |
| 20260902180150 | 47 | 214 | 5.0 | 2.0 | 0.00 | 0.00 | 0.01 | 74 | 1007.2 |
| 20260902175652 | 47 | 215 | 2.0 | 1.0 | 0.00 | 0.00 | 0.01 | 73 | 1007.0 |
| 20260902174654 | 47 | 274 | 1.0 | 2.0 | 0.00 | 0.00 | 0.01 | 72 | 1006.9 |
| 20260902174152 | 47 | 277 | 1.0 | 4.0 | 0.00 | 0.00 | 0.01 | 74 | 1007.0 |
| 20260902173652 | 47 | 184 | 3.0 | 1.0 | 0.00 | 0.00 | 0.01 | 73 | 1006.9 |
| 20260902173153 | 47 | 183 | 2.0 | 6.0 | 0.00 | 0.00 | 0.01 | 70 | 1006.9 |
| 20260902172711 | 47 | 184 | 0.0 | 2.0 | 0.00 | 0.00 | 0.01 | 70 | 1006.9 |
| 20260902172156 | 47 | 262 | 2.0 | 1.0 | 0.00 | 0.00 | 0.01 | 70 | 1006.9 |
| 20260902171154 | 47 | 165 | 3.0 | 1.0 | 0.00 | 0.00 | 0.01 | 70 | 1007.0 |
| 20260902170655 | 47 | 307 | 3.0 | 5.0 | 0.00 | 0.00 | 0.01 | 70 | 1007.0 |
| 20260902165657 | 47 | 309 | 2.0 | 5.0 | 0.00 | 0.00 | 0.01 | 71 | 1007.0 |
| 20260902165155 | 47 | 235 | 4.0 | 7.0 | 0.00 | 0.00 | 0.01 | 70 | 1007.2 |
| 20260902164157 | 47 | 255 | 2.0 | 0.0 | 0.00 | 0.00 | 0.01 | 71 | 1007.0 |
| 20260902163658 | 47 | 152 | 1.0 | 0.0 | 0.00 | 0.00 | 0.01 | 70 | 1007.2 |
| 20260902163158 | 47 | 225 | 1.0 | 6.0 | 0.00 | 0.00 | 0.01 | 70 | 1007.2 |
| 20260902161159 | 47 | 165 | 2.0 | 0.0 | 0.00 | 0.00 | 0.01 | 71 | 1007.2 |
| 20260902160158 | 46 | 169 | 1.0 | 1.0 | 0.00 | 0.00 | 0.01 | 71 | 1007.2 |
| 20260902155700 | 46 | 236 | 0.0 | 3.0 | 0.00 | 0.00 | 0.01 | 72 | 1007.3 |
| 20260902153700 | 45 | 65 | 0.0 | 0.0 | 0.00 | 0.00 | 0.01 | 77 | 1007.6 |
| 20260902153201 | 45 | 245 | 1.0 | 3.0 | 0.00 | 0.00 | 0.01 | 77 | 1007.6 |
| 20260902152704 | 45 | 267 | 0.0 | 1.0 | 0.00 | 0.00 | 0.01 | 77 | 1007.6 |
| 20260902152202 | 45 | 176 | 1.0 | 3.0 | 0.00 | 0.00 | 0.01 | 78 | 1007.5 |
| 20260902151703 | 45 | 203 | 1.0 | 0.0 | 0.00 | 0.00 | 0.01 | 78 | 1007.5 |
| 20260902150702 | 44 | 291 | 4.0 | 5.0 | 0.00 | 0.00 | 0.01 | 81 | 1007.6 |
| 20260902145704 | 44 | 264 | 0.0 | 0.0 | 0.00 | 0.00 | 0.01 | 84 | 1007.7 |
| 20260902144204 | 43 | 304 | 0.0 | 3.0 | 0.00 | 0.00 | 0.01 | 87 | 1007.9 |
| 20260902143706 | 43 | 260 | 3.0 | 0.0 | 0.00 | 0.00 | 0.01 | 86 | 1007.9 |
| 20260902143207 | 42 | 255 | 1.0 | 1.0 | 0.00 | 0.00 | 0.01 | 88 | 1007.7 |
| 20260902142708 | 42 | 25 | 0.0 | 3.0 | 0.00 | 0.00 | 0.01 | 90 | 1008.0 |
| 20260902142206 | 42 | 253 | 0.0 | 0.0 | 0.00 | 0.00 | 0.01 | 91 | 1008.1 |
| 20260902141706 | 42 | 267 | 0.0 | 0.0 | 0.00 | 0.00 | 0.01 | 92 | 1008.1 |
| 20260902140708 | 42 | 176 | 0.0 | 0.0 | 0.00 | 0.00 | 0.01 | 92 | 1008.1 |
| 20260902140209 | 42 | 176 | 0.0 | 0.0 | 0.00 | 0.00 | 0.01 | 91 | 1008.1 |
| 20260902135707 | 42 | 252 | 0.0 | 1.0 | 0.00 | 0.00 | 0.01 | 91 | 1008.0 |
| 20260902133711 | 43 | 325 | 0.0 | 0.0 | 0.00 | 0.00 | 0.01 | 91 | 1008.2 |
| 20260902132710 | 43 | 283 | 1.0 | 0.0 | 0.00 | 0.00 | 0.01 | 91 | 1008.3 |
| 20260902131711 | 43 | 349 | 2.0 | 2.0 | 0.00 | 0.00 | 0.01 | 92 | 1008.5 |
| 20260902131213 | 43 | 284 | 1.0 | 0.0 | 0.00 | 0.00 | 0.01 | 92 | 1008.5 |
| 20260902130710 | 43 | 249 | 1.0 | 0.0 | 0.00 | 0.00 | 0.01 | 92 | 1008.6 |
| 20260902125712 | 43 | 217 | 0.0 | 0.0 | 0.00 | 0.00 | 0.01 | 92 | 1008.6 |
| 20260902124213 | 43 | 302 | 1.0 | 2.0 | 0.00 | 0.00 | 0.01 | 92 | 1008.7 |
| 20260902123714 | 43 | 217 | 1.0 | 0.0 | 0.00 | 0.00 | 0.01 | 92 | 1008.8 |
| 20260902123215 | 43 | 249 | 0.0 | 0.0 | 0.00 | 0.00 | 0.01 | 92 | 1008.8 |
| 20260902122715 | 43 | 269 | 1.0 | 0.0 | 0.00 | 0.00 | 0.01 | 93 | 1008.8 |
| 20260902121714 | 43 | 312 | 3.0 | 3.0 | 0.00 | 0.00 | 0.01 | 94 | 1008.9 |
| 20260902121216 | 43 | 333 | 2.0 | 3.0 | 0.00 | 0.00 | 0.01 | 94 | 1008.9 |
| 20260902120716 | 43 | 278 | 2.0 | 1.0 | 0.00 | 0.00 | 0.01 | 94 | 1009.0 |
| 20260902120217 | 43 | 253 | 5.0 | 2.0 | 0.00 | 0.00 | 0.01 | 94 | 1009.2 |
| 20260902115719 | 43 | 326 | 1.0 | 5.0 | 0.00 | 0.00 | 0.01 | 94 | 1009.0 |
| 20260902114717 | 43 | 288 | 4.0 | 4.0 | 0.00 | 0.00 | 0.01 | 94 | 1009.2 |
| 20260902114219 | 43 | 349 | 3.0 | 3.0 | 0.00 | 0.00 | 0.01 | 94 | 1009.2 |
| 20260902113719 | 43 | 295 | 4.0 | 4.0 | 0.00 | 0.00 | 0.01 | 94 | 1009.2 |
| 20260902113220 | 42 | 211 | 0.0 | 2.0 | 0.00 | 0.00 | 0.01 | 95 | 1009.3 |
| 20260902112219 | 42 | 233 | 2.0 | 1.0 | 0.00 | 0.00 | 0.01 | 95 | 1009.4 |
| 20260902110220 | 42 | 226 | 0.0 | 0.0 | 0.00 | 0.00 | 0.01 | 95 | 1009.3 |
| 20260902105722 | 42 | 226 | 0.0 | 0.0 | 0.01 | 0.00 | 0.01 | 95 | 1009.3 |
| 20260902104724 | 42 | 276 | 1.0 | 3.0 | 0.01 | 0.00 | 0.01 | 95 | 1009.4 |
| 20260902104225 | 42 | 297 | 0.0 | 0.0 | 0.01 | 0.00 | 0.01 | 95 | 1009.4 |
| 20260902103723 | 42 | 263 | 0.0 | 0.0 | 0.01 | 0.00 | 0.01 | 95 | 1009.4 |
| 20260902102226 | 42 | 304 | 4.0 | 5.0 | 0.01 | 0.00 | 0.01 | 95 | 1009.5 |
| 20260902101727 | 42 | 309 | 2.0 | 2.0 | 0.01 | 0.00 | 0.01 | 95 | 1009.6 |
| 20260902101225 | 42 | 232 | 2.0 | 3.0 | 0.01 | 0.00 | 0.01 | 95 | 1009.6 |
| 20260902100727 | 42 | 255 | 2.0 | 0.0 | 0.01 | 0.00 | 0.01 | 95 | 1009.6 |
| 20260902100227 | 42 | 319 | 3.0 | 2.0 | 0.01 | 0.00 | 0.01 | 95 | 1009.6 |
| 20260902093729 | 43 | 298 | 4.0 | 6.0 | 0.00 | 0.00 | 0.01 | 95 | 1010.0 |
| 20260902092229 | 43 | 277 | 4.0 | 5.0 | 0.00 | 0.00 | 0.01 | 95 | 1010.2 |
| 20260902090233 | 43 | 309 | 1.0 | 1.0 | 0.00 | 0.00 | 0.01 | 95 | 1010.3 |
| 20260902085731 | 43 | 271 | 0.0 | 0.0 | 0.00 | 0.00 | 0.00 | 95 | 1010.1 |
| 20260902085233 | 43 | 267 | 1.0 | 4.0 | 0.00 | 0.00 | 0.00 | 95 | 1010.2 |
| 20260902084235 | 43 | 280 | 1.0 | 0.0 | 0.00 | 0.00 | 0.00 | 95 | 1010.2 |
| 20260902082735 | 43 | 271 | 4.0 | 2.0 | 0.00 | 0.00 | 0.00 | 95 | 1010.1 |
| 20260902082235 | 43 | 311 | 4.0 | 2.0 | 0.00 | 0.00 | 0.00 | 95 | 1010.2 |
| 20260902080236 | 43 | 294 | 3.0 | 4.0 | 0.00 | 0.00 | 0.00 | 95 | 1009.9 |
| 20260902075758 | 43 | 338 | 4.0 | 3.0 | 0.00 | 0.00 | 0.00 | 95 | 1009.8 |
| 20260902073739 | 43 | 311 | 2.0 | 4.0 | 0.00 | 0.00 | 0.00 | 93 | 1010.0 |
| 20260902073240 | 43 | 304 | 5.0 | 3.0 | 0.00 | 0.00 | 0.00 | 94 | 1010.0 |
| 20260902072242 | 43 | 297 | 6.0 | 8.0 | 0.00 | 0.00 | 0.00 | 94 | 1010.1 |
| 20260902071740 | 43 | 328 | 8.0 | 4.0 | 0.00 | 0.00 | 0.00 | 94 | 1010.0 |
| 20260902071241 | 43 | 343 | 4.0 | 6.0 | 0.00 | 0.00 | 0.00 | 94 | 1010.2 |
| 20260902070742 | 43 | 315 | 4.0 | 4.0 | 0.00 | 0.00 | 0.00 | 94 | 1010.2 |
| 20260902070243 | 43 | 329 | 3.0 | 3.0 | 0.00 | 0.00 | 0.00 | 94 | 1010.3 |
| 20260902065744 | 43 | 293 | 4.0 | 7.0 | 0.00 | 0.00 | 0.00 | 94 | 1010.3 |
| 20260902065242 | 43 | 314 | 5.0 | 2.0 | 0.00 | 0.00 | 0.00 | 94 | 1010.3 |
| 20260902064743 | 43 | 336 | 4.0 | 5.0 | 0.00 | 0.00 | 0.00 | 95 | 1010.5 |
| 20260902064244 | 43 | 308 | 8.0 | 4.0 | 0.00 | 0.00 | 0.00 | 95 | 1010.5 |
| 20260902063745 | 43 | 242 | 0.0 | 4.0 | 0.00 | 0.00 | 0.00 | 94 | 1010.6 |
| 20260902063246 | 43 | 294 | 5.0 | 5.0 | 0.00 | 0.00 | 0.00 | 94 | 1010.6 |
| 20260902062744 | 43 | 294 | 3.0 | 3.0 | 0.00 | 0.00 | 0.00 | 94 | 1010.7 |
| 20260902060748 | 44 | 329 | 3.0 | 3.0 | 0.00 | 0.00 | 0.00 | 94 | 1010.8 |
| 20260902055747 | 44 | 328 | 4.0 | 3.0 | 0.00 | 0.00 | 0.00 | 93 | 1010.9 |
| 20260902055248 | 44 | 311 | 5.0 | 3.0 | 0.00 | 0.00 | 0.00 | 93 | 1010.9 |
| 20260902054250 | 44 | 328 | 4.0 | 6.0 | 0.00 | 0.00 | 0.00 | 90 | 1011.1 |
| 20260902053749 | 44 | 302 | 5.0 | 2.0 | 0.00 | 0.00 | 0.00 | 90 | 1011.1 |
| 20260902053250 | 44 | 308 | 4.0 | 6.0 | 0.00 | 0.00 | 0.00 | 89 | 1011.1 |
| 20260902052251 | 44 | 318 | 4.0 | 5.0 | 0.00 | 0.00 | 0.00 | 89 | 1011.2 |
| 20260902051752 | 44 | 319 | 7.0 | 2.0 | 0.00 | 0.00 | 0.00 | 89 | 1011.2 |
| 20260902050751 | 44 | 329 | 4.0 | 4.0 | 0.00 | 0.00 | 0.00 | 88 | 1011.2 |
| 20260902050253 | 44 | 300 | 5.0 | 3.0 | 0.00 | 0.00 | 0.00 | 88 | 1011.2 |
| 20260902045753 | 44 | 318 | 7.0 | 4.0 | 0.00 | 0.00 | 0.00 | 88 | 1011.2 |
| 20260902044752 | 44 | 322 | 8.0 | 9.0 | 0.00 | 0.00 | 0.00 | 87 | 1011.1 |
| 20260902042757 | 46 | 328 | 3.0 | 4.0 | 0.00 | 0.00 | 0.00 | 82 | 1011.1 |
| 20260902041756 | 46 | 295 | 3.0 | 4.0 | 0.00 | 0.00 | 0.00 | 82 | 1011.2 |
| 20260902040759 | 46 | 288 | 4.0 | 3.0 | 0.00 | 0.00 | 0.00 | 81 | 1011.2 |
| 20260902035258 | 46 | 300 | 8.0 | 3.0 | 0.00 | 0.00 | 0.00 | 82 | 1011.2 |
| 20260902025805 | 47 | 301 | 5.0 | 7.0 | 0.00 | 0.00 | 0.00 | 79 | 1010.8 |
| 20260902024805 | 47 | 325 | 3.0 | 2.0 | 0.00 | 0.00 | 0.00 | 78 | 1010.8 |
| 20260902024303 | 47 | 315 | 5.0 | 5.0 | 0.00 | 0.00 | 0.00 | 79 | 1010.9 |
| 20260902022307 | 48 | 295 | 6.0 | 3.0 | 0.00 | 0.00 | 0.00 | 76 | 1010.9 |
| 20260902020309 | 48 | 284 | 5.0 | 9.0 | 0.00 | 0.00 | 0.00 | 76 | 1010.8 |
| 20260902014809 | 49 | 347 | 5.0 | 4.0 | 0.00 | 0.00 | 0.00 | 75 | 1010.9 |
| 20260902011812 | 52 | 288 | 6.0 | 9.0 | 0.00 | 0.00 | 0.00 | 67 | 1011.1 |
| 20260902005813 | 53 | 262 | 4.0 | 6.0 | 0.00 | 0.00 | 0.00 | 60 | 1010.9 |
| 20260902005315 | 53 | 281 | 3.0 | 5.0 | 0.00 | 0.00 | 0.00 | 60 | 1010.9 |
| 20260902003815 | 54 | 293 | 5.0 | 3.0 | 0.00 | 0.00 | 0.00 | 59 | 1011.1 |
| 20260902001818 | 55 | 300 | 5.0 | 5.0 | 0.00 | 0.00 | 0.00 | 55 | 1010.8 |
| 20260901234819 | 57 | 276 | 7.0 | 3.0 | 0.00 | 0.00 | 0.00 | 51 | 1010.8 |
| 20260901233329 | 59 | 266 | 7.0 | 3.0 | 0.00 | 0.00 | 0.00 | 47 | 1010.8 |
| 20260901232822 | 59 | 218 | 8.0 | 4.0 | 0.00 | 0.00 | 0.00 | 47 | 1010.7 |
| 20260901231822 | 59 | 300 | 6.0 | 5.0 | 0.00 | 0.00 | 0.00 | 46 | 1010.8 |
| 20260901231323 | 60 | 246 | 7.0 | 6.0 | 0.00 | 0.00 | 0.00 | 45 | 1010.6 |
| 20260901225823 | 60 | 250 | 5.0 | 4.0 | 0.00 | 0.00 | 0.00 | 45 | 1010.7 |
| 20260901225324 | 60 | 13 | 8.0 | 4.0 | 0.00 | 0.00 | 0.00 | 45 | 1010.7 |
| 20260901224832 | 60 | 284 | 6.0 | 8.0 | 0.00 | 0.00 | 0.00 | 45 | 1010.8 |
| 20260901222833 | 59 | 274 | 5.0 | 3.0 | 0.00 | 0.00 | 0.00 | 46 | 1011.1 |
| 20260901215344 | 62 | 297 | 5.0 | 5.0 | 0.00 | 0.00 | 0.00 | 38 | 1010.9 |
| 20260901213831 | 62 | 280 | 7.0 | 11.0 | 0.00 | 0.00 | 0.00 | 40 | 1011.1 |
| 20260901203838 | 61 | 293 | 5.0 | 5.0 | 0.00 | 0.00 | 0.00 | 39 | 1011.2 |
| 20260901203339 | 61 | 228 | 5.0 | 2.0 | 0.00 | 0.00 | 0.00 | 38 | 1011.2 |
| 20260901202837 | 61 | 249 | 4.0 | 4.0 | 0.00 | 0.00 | 0.00 | 38 | 1011.3 |
| 20260901202340 | 61 | 294 | 6.0 | 5.0 | 0.00 | 0.00 | 0.00 | 37 | 1011.3 |
| 20260901201340 | 61 | 297 | 4.0 | 9.0 | 0.00 | 0.00 | 0.00 | 38 | 1011.3 |
| 20260901200843 | 61 | 260 | 3.0 | 2.0 | 0.00 | 0.00 | 0.00 | 37 | 1011.3 |
| 20260901195841 | 61 | 302 | 7.0 | 4.0 | 0.00 | 0.00 | 0.00 | 37 | 1011.3 |
| 20260901195342 | 61 | 278 | 5.0 | 7.0 | 0.00 | 0.00 | 0.00 | 39 | 1011.3 |
| 20260901194843 | 60 | 274 | 5.0 | 13.0 | 0.00 | 0.00 | 0.00 | 40 | 1011.3 |
| 20260901193843 | 60 | 176 | 6.0 | 1.0 | 0.00 | 0.00 | 0.00 | 38 | 1011.4 |
| 20260901193344 | 60 | 281 | 6.0 | 8.0 | 0.00 | 0.00 | 0.00 | 39 | 1011.4 |
| 20260901192845 | 60 | 318 | 3.0 | 4.0 | 0.00 | 0.00 | 0.00 | 39 | 1011.4 |
| 20260901192346 | 59 | 281 | 5.0 | 5.0 | 0.00 | 0.00 | 0.00 | 41 | 1011.5 |
| 20260901191847 | 59 | 242 | 4.0 | 5.0 | 0.00 | 0.00 | 0.00 | 40 | 1011.5 |
| 20260901191345 | 59 | 255 | 5.0 | 8.0 | 0.00 | 0.00 | 0.00 | 40 | 1011.7 |
| 20260901190846 | 59 | 229 | 4.0 | 1.0 | 0.00 | 0.00 | 0.00 | 41 | 1011.5 |
| 20260901190347 | 59 | 283 | 7.0 | 6.0 | 0.00 | 0.00 | 0.00 | 40 | 1011.5 |
| 20260901185848 | 59 | 293 | 5.0 | 7.0 | 0.00 | 0.00 | 0.00 | 43 | 1011.5 |
| 20260901185349 | 59 | 285 | 4.0 | 7.0 | 0.00 | 0.00 | 0.00 | 44 | 1011.5 |
| 20260901184847 | 59 | 239 | 1.0 | 2.0 | 0.00 | 0.00 | 0.00 | 51 | 1011.5 |
| 20260901184348 | 59 | 257 | 4.0 | 0.0 | 0.00 | 0.00 | 0.00 | 54 | 1011.5 |
| 20260901183849 | 59 | 145 | 4.0 | 1.0 | 0.00 | 0.00 | 0.00 | 57 | 1011.5 |
| 20260901183350 | 58 | 284 | 1.0 | 8.0 | 0.00 | 0.00 | 0.00 | 58 | 1011.5 |
| 20260901182851 | 57 | 233 | 3.0 | 2.0 | 0.00 | 0.00 | 0.00 | 59 | 1011.5 |
| 20260901182350 | 57 | 0 | 5.0 | 1.0 | 0.00 | 0.00 | 0.00 | 60 | 1011.4 |
| 20260901181850 | 56 | 302 | 6.0 | 2.0 | 0.00 | 0.00 | 0.00 | 62 | 1011.4 |
| 20260901181351 | 55 | 325 | 4.0 | 2.0 | 0.00 | 0.00 | 0.00 | 63 | 1011.4 |
| 20260901180852 | 55 | 283 | 4.0 | 4.0 | 0.00 | 0.00 | 0.00 | 63 | 1011.3 |
| 20260901180353 | 55 | 322 | 3.0 | 5.0 | 0.00 | 0.00 | 0.00 | 64 | 1011.3 |